星链-37167(STARLINK-37167)

导读

STARLINK-37167(NORAD编号68732)是SpaceX星链互联网星座中的一颗低轨通信卫星,隶属于全球规模最大的低轨卫星星座系统,主要为地面提供低成本、高性能的宽带互联网接入服务。 该卫星运行在近地轨道,星链星座目前已在轨部署近万颗卫星,SpaceX从2026年开始逐步将部分轨道高度从550公里左右降低至480公里,以降低碰撞风险,提升太空运行安全性。卫星纳入SpaceX统一轨道管理,团队保持全天候监测,应对在轨异常情况。

Basic Information
目录编号:
68732
目录名称:
STARLINK-37167
国际标识:
2026-082E
轨道中心:
EARTH
卫星名称:
星链-37167
卫星全名:
星链-37167(STARLINK-37167)
卫星状态:
在轨 (已飞行151 天)
发射日期:
2026-04-15 UTC
国别 :
美国 (US)
星等 :
--
This satellite is enrolled in the Space Conjunction Data Service (SCDS) and the current flight risk assessment level is: No High Risk
Orbit Information
数据来源 国际轨道数据
星历时间: 2026-09-13T11:25:04+0800
9小时前
查看轨道信息
半长轴: 6843.658km
偏心率: 0.000264
轨道倾角: 97.284°
近地点辐角 58.802°
升交点赤经 118.330°
平近点角 301.348°
近地点: 463.714km
远地点: 467.328km
周期: 93.906分钟
每日圈数: 15.334525
Detailed Information
固有亮度:
5
最大亮度:
2.5
卫星平台:
Starlink V1.0
覆盖范围:
全球
运营商:
太空探索技术公司
运营商所在国:
美国
制造商(研发单位):
太空探索技术公司
制造商所在国:
美国
使用方式:
暂无
Satellite Introduction
Starlink 计划是 SpaceX 推出的全球卫星互联网项目,通过发射低轨道卫星,为全球尤其是偏远地区提供高速、低延迟的互联网服务。自 2019 年起,Starlink 已部署数千颗卫星,旨在缩小全球数字鸿沟,推动互联网普及。该项目还为军事、航空等行业提供通信支持,带来广泛经济效益。
2D Orbit Map
3D Orbit Map
Orbit Altitude Analysis Chart
Orbit Inclination Analysis Chart
Orbit Comprehensive Analysis Chart
View Comprehensive Chart
Conjunction Data List
Event ID Objects TCA Miss Dist (km) Collision Risk Probability Collision Risk Index (CRI) Action
CDM_260909-113905-736906-873223
2026-09-09T
11:39:07+0000
1.131 km
极远距离
1.723559E-5 中风险 0.6
CDM_260913-112405-230106-873224
2026-09-13T
11:24:00+0000
1.912 km
极远距离
3.169864E-6 低风险 0.45
CDM_260915-064804-464106-873221
2026-09-15T
06:48:22+0000
2.445 km
极远距离
1.804064E-6 低风险 0.4
CDM_260915-123304-607006-873221
2026-09-15T
12:33:40+0000
2.984 km
极远距离
1.345609E-6 低风险 0.38
CDM_260915-161704-431206-873221
OBJECT C (44312)
2026-09-15T
16:17:46+0000
2.712 km
极远距离
1.339154E-6 低风险 0.38
CDM_260913-011305-229706-873222
2026-09-13T
01:13:41+0000
2.965 km
极远距离
1.335258E-6 低风险 0.38
Miss Distance Evolution Trend with All Objects
Collision Probability Evolution Trend with All Objects